Location: Borojevi?i
(45.0486°N, 16.2297°E)
Time: 10:42:51
(UTC+00:00)

BREEZE-M DEB (TANK) - Pass Details

Date: 08 August 2020
Orbit: 279 x 20489 km, 49.2° (Epoch: 20 September)

Event Time Altitude Azimuth Distance (km) Brightness Sun altitude
Rises 19:55:05 0° 278° (W) 3,131 7.6 -16.0°
Reaches altitude 10° 19:58:13 10° 290° (WNW) 1,493 6.1 -16.4°
Maximum altitude 20:00:36 29° 356° (N) 578 3.4 -16.7°
Enters shadow 20:01:26 21° 42° (NE) 711 3.4 -16.8°
